timestamp,wind_dir_avg,wind_spd_avg,wind_spd_max_dir,wind_spd_gust,battery_voltage,lat,long
2021-08-19 00:04:00+00:00,221.0,4.64,219.0,5.14,12.73,47.59359,-54.27349
2021-08-19 00:14:01+00:00,224.0,3.81,225.0,4.19,12.65,47.59359,-54.27349
2021-08-19 00:24:01+00:00,221.0,4.27,226.0,4.77,12.65,47.59359,-54.27349
2021-08-19 00:34:01+00:00,217.0,5.29,219.0,5.8,12.65,47.59359,-54.27349
2021-08-19 00:44:01+00:00,229.0,4.63,225.0,5.14,12.65,47.59359,-54.27349
2021-08-19 00:54:01+00:00,221.0,5.81,222.0,6.11,12.65,47.59359,-54.27349
2021-08-19 01:04:01+00:00,217.0,6.28,216.0,7.08,12.65,47.59359,-54.27349
2021-08-19 01:14:01+00:00,202.0,6.58,205.0,7.46,12.65,47.59359,-54.27349
2021-08-19 01:24:01+00:00,199.0,5.82,198.0,6.32,12.65,47.59359,-54.27349
2021-08-19 01:34:01+00:00,213.0,6.34,212.0,7.23,12.65,47.59359,-54.27349
2021-08-19 01:44:01+00:00,222.0,5.91,226.0,6.45,12.65,47.59359,-54.27349
2021-08-19 01:54:01+00:00,218.0,5.51,220.0,6.15,12.65,47.59359,-54.27349
2021-08-19 02:04:01+00:00,208.0,4.83,213.0,5.39,12.65,47.59359,-54.27349
2021-08-19 02:14:01+00:00,195.0,5.99,193.0,6.64,12.65,47.59359,-54.27349
2021-08-19 02:24:01+00:00,210.0,5.98,210.0,6.42,12.65,47.59359,-54.27349
2021-08-19 02:34:01+00:00,212.0,6.2,213.0,6.89,12.65,47.59359,-54.27349
2021-08-19 02:44:01+00:00,209.0,6.62,212.0,7.28,12.65,47.59359,-54.27349
2021-08-19 02:54:01+00:00,210.0,6.87,215.0,7.54,12.65,47.59359,-54.27349
2021-08-19 03:04:01+00:00,213.0,6.82,215.0,7.37,12.65,47.59359,-54.27349
2021-08-19 03:14:01+00:00,218.0,6.67,218.0,7.4,12.65,47.59359,-54.27349
2021-08-19 03:24:01+00:00,212.0,5.97,211.0,6.37,12.65,47.59359,-54.27349
2021-08-19 03:34:01+00:00,215.0,6.54,215.0,7.12,12.65,47.59359,-54.27349
2021-08-19 03:44:01+00:00,216.0,5.26,216.0,5.91,12.65,47.59359,-54.27349
2021-08-19 03:54:01+00:00,222.0,6.05,220.0,6.85,12.65,47.59359,-54.27349
2021-08-19 04:04:01+00:00,219.0,5.98,218.0,6.54,12.65,47.59359,-54.27349
2021-08-19 04:14:00+00:00,218.0,5.02,219.0,5.39,12.57,47.59359,-54.27349
2021-08-19 04:24:00+00:00,208.0,4.64,212.0,5.28,12.57,47.59359,-54.27349
2021-08-19 04:34:00+00:00,220.0,5.13,221.0,6.02,12.57,47.59359,-54.27349
2021-08-19 04:44:00+00:00,222.0,5.81,219.0,6.94,12.57,47.59359,-54.27349
2021-08-19 04:54:00+00:00,226.0,5.75,227.0,6.65,12.57,47.59359,-54.27349
2021-08-19 05:04:00+00:00,215.0,6.13,216.0,6.77,12.57,47.59359,-54.27349
2021-08-19 05:14:00+00:00,223.0,6.63,222.0,7.21,12.57,47.59359,-54.27349
2021-08-19 05:24:00+00:00,208.0,5.66,209.0,6.31,12.57,47.59359,-54.27349
2021-08-19 05:34:00+00:00,217.0,6.21,222.0,6.66,12.57,47.59359,-54.27349
2021-08-19 05:44:00+00:00,216.0,6.82,215.0,7.46,12.57,47.59359,-54.27349
2021-08-19 05:54:00+00:00,209.0,5.8,208.0,6.51,12.57,47.59359,-54.27349
2021-08-19 06:04:00+00:00,211.0,7.63,212.0,8.44,12.57,47.59359,-54.27349
2021-08-19 06:14:01+00:00,218.0,8.38,218.0,8.99,12.57,47.59359,-54.27349
2021-08-19 06:24:01+00:00,225.0,6.03,222.0,6.66,12.57,47.59359,-54.27349
2021-08-19 06:34:01+00:00,213.0,7.05,216.0,7.62,12.57,47.59359,-54.27349
2021-08-19 06:44:01+00:00,215.0,5.25,213.0,6.04,12.57,47.59359,-54.27349
2021-08-19 06:54:01+00:00,209.0,5.35,206.0,5.88,12.57,47.59359,-54.27349
2021-08-19 07:04:01+00:00,219.0,6.06,218.0,6.72,12.57,47.59359,-54.27349
2021-08-19 07:14:00+00:00,224.0,7.09,226.0,7.96,12.57,47.59359,-54.27349
2021-08-19 07:24:00+00:00,223.0,7.17,220.0,8.01,12.57,47.59359,-54.27349
2021-08-19 07:34:00+00:00,215.0,6.35,217.0,7.15,12.57,47.59359,-54.27349
2021-08-19 07:44:00+00:00,215.0,5.42,216.0,5.97,12.57,47.59359,-54.27349
2021-08-19 07:54:00+00:00,222.0,4.68,225.0,5.19,12.57,47.59359,-54.27349
2021-08-19 08:04:00+00:00,215.0,4.05,217.0,4.61,12.57,47.59359,-54.27349
2021-08-19 08:14:01+00:00,207.0,5.77,210.0,6.6,12.49,47.59359,-54.27349
2021-08-19 08:24:01+00:00,215.0,6.43,217.0,6.96,12.49,47.59359,-54.27349
2021-08-19 08:34:01+00:00,211.0,5.28,211.0,5.84,12.49,47.59359,-54.27349
2021-08-19 08:44:01+00:00,211.0,5.25,210.0,5.96,12.49,47.59359,-54.27349
2021-08-19 08:54:01+00:00,217.0,4.33,216.0,4.81,12.49,47.59359,-54.27349
2021-08-19 09:04:01+00:00,212.0,4.49,216.0,5.72,12.49,47.59359,-54.27349
2021-08-19 09:14:01+00:00,221.0,5.94,222.0,6.49,12.49,47.59359,-54.27349
2021-08-19 09:24:01+00:00,211.0,4.2,211.0,4.57,12.49,47.59359,-54.27349
2021-08-19 09:34:01+00:00,213.0,3.13,210.0,3.61,12.49,47.59359,-54.27349
2021-08-19 09:44:01+00:00,197.0,3.83,197.0,4.27,12.49,47.59359,-54.27349
2021-08-19 09:54:01+00:00,223.0,3.74,213.0,4.46,12.49,47.59359,-54.27349
2021-08-19 10:04:01+00:00,223.0,5.67,222.0,6.44,12.49,47.59359,-54.27349
2021-08-19 10:14:01+00:00,218.0,5.51,218.0,6.3,13.21,47.59359,-54.27349
2021-08-19 10:24:01+00:00,221.0,5.48,222.0,6.09,13.21,47.59359,-54.27349
2021-08-19 10:34:01+00:00,220.0,5.93,219.0,6.58,13.21,47.59359,-54.27349
2021-08-19 10:44:01+00:00,223.0,5.74,226.0,6.42,13.21,47.59359,-54.27349
2021-08-19 10:54:01+00:00,215.0,6.04,217.0,6.77,13.21,47.59359,-54.27349
2021-08-19 11:04:01+00:00,213.0,5.82,210.0,6.66,13.21,47.59359,-54.27349
2021-08-19 11:14:01+00:00,222.0,6.36,223.0,7.24,13.44,47.59359,-54.27349
2021-08-19 11:24:01+00:00,221.0,6.01,222.0,6.49,13.44,47.59359,-54.27349
2021-08-19 11:34:01+00:00,220.0,4.65,218.0,5.42,13.44,47.59359,-54.27349
2021-08-19 11:44:01+00:00,208.0,7.13,206.0,7.78,13.44,47.59359,-54.27349
2021-08-19 11:54:01+00:00,211.0,7.92,212.0,8.81,13.44,47.59359,-54.27349
2021-08-19 12:04:01+00:00,210.0,9.32,207.0,9.9,13.44,47.59359,-54.27349
2021-08-19 12:14:01+00:00,206.0,8.97,208.0,10.19,13.76,47.59359,-54.27349
2021-08-19 12:24:01+00:00,206.0,7.58,214.0,9.01,13.76,47.59359,-54.27349
2021-08-19 12:34:01+00:00,205.0,7.07,204.0,8.01,13.76,47.59359,-54.27349
2021-08-19 12:44:01+00:00,201.0,7.07,204.0,8.05,13.76,47.59359,-54.27349
2021-08-19 12:54:01+00:00,210.0,8.63,212.0,9.43,13.76,47.59359,-54.27349
2021-08-19 13:04:01+00:00,211.0,9.48,210.0,10.55,13.76,47.59359,-54.27349
2021-08-19 13:14:01+00:00,208.0,9.54,204.0,10.48,14.0,47.59359,-54.27349
2021-08-19 13:24:01+00:00,207.0,9.59,211.0,10.94,14.0,47.59359,-54.27349
2021-08-19 13:34:01+00:00,207.0,9.53,201.0,10.58,14.0,47.59359,-54.27349
2021-08-19 13:44:01+00:00,204.0,10.51,207.0,11.21,14.0,47.59359,-54.27349
2021-08-19 13:54:01+00:00,205.0,10.26,205.0,11.52,14.0,47.59359,-54.27349
2021-08-19 14:04:01+00:00,207.0,9.42,206.0,10.61,14.0,47.59359,-54.27349
2021-08-19 14:14:01+00:00,202.0,8.86,201.0,9.95,13.76,47.59359,-54.27349
2021-08-19 14:24:01+00:00,203.0,8.3,210.0,8.98,13.76,47.59359,-54.27349
2021-08-19 14:34:01+00:00,201.0,8.89,200.0,10.65,13.76,47.59359,-54.27349
2021-08-19 14:44:01+00:00,206.0,8.77,204.0,9.47,13.76,47.59359,-54.27349
2021-08-19 14:54:01+00:00,203.0,9.06,208.0,9.93,13.76,47.59359,-54.27349
2021-08-19 15:04:01+00:00,202.0,9.37,205.0,10.63,13.76,47.59359,-54.27349
2021-08-19 15:14:01+00:00,209.0,9.09,207.0,10.08,14.32,47.59359,-54.27349
2021-08-19 15:24:01+00:00,208.0,9.09,210.0,9.97,14.32,47.59359,-54.27349
2021-08-19 15:34:01+00:00,211.0,8.94,214.0,9.63,14.32,47.59359,-54.27349
2021-08-19 15:44:01+00:00,211.0,8.91,213.0,9.76,14.32,47.59359,-54.27349
2021-08-19 15:54:01+00:00,210.0,8.99,210.0,10.65,14.32,47.59359,-54.27349
2021-08-19 16:04:01+00:00,209.0,9.58,207.0,10.47,14.32,47.59359,-54.27349
2021-08-19 16:14:01+00:00,206.0,9.91,207.0,11.25,14.32,47.59359,-54.27349
2021-08-19 16:24:01+00:00,210.0,8.98,209.0,10.11,14.32,47.59359,-54.27349
2021-08-19 16:34:01+00:00,209.0,9.23,210.0,10.23,14.32,47.59359,-54.27349
2021-08-19 16:44:01+00:00,206.0,10.02,207.0,10.93,14.32,47.59359,-54.27349
2021-08-19 16:54:01+00:00,209.0,11.05,216.0,13.21,14.32,47.59359,-54.27349
2021-08-19 17:04:01+00:00,210.0,10.81,217.0,12.43,14.32,47.59359,-54.27349
2021-08-19 17:14:01+00:00,211.0,11.08,215.0,12.91,14.24,47.59359,-54.27349
2021-08-19 17:24:01+00:00,209.0,9.64,208.0,10.92,14.24,47.59359,-54.27349
2021-08-19 17:34:01+00:00,209.0,10.14,208.0,11.56,14.24,47.59359,-54.27349
2021-08-19 17:44:01+00:00,214.0,10.16,217.0,11.64,14.24,47.59359,-54.27349
2021-08-19 17:54:01+00:00,219.0,9.36,227.0,10.51,14.24,47.59359,-54.27349
2021-08-19 18:04:01+00:00,221.0,9.34,217.0,10.59,14.24,47.59359,-54.27349
2021-08-19 18:14:01+00:00,248.0,9.1,249.0,10.19,14.0,47.59359,-54.27349
2021-08-19 18:24:01+00:00,240.0,7.38,240.0,10.06,14.0,47.59359,-54.27349
2021-08-19 18:34:01+00:00,251.0,9.47,255.0,11.6,14.0,47.59359,-54.27349
2021-08-19 18:44:01+00:00,255.0,9.65,258.0,11.01,14.0,47.59359,-54.27349
2021-08-19 18:54:01+00:00,257.0,11.11,255.0,12.4,14.0,47.59359,-54.27349
2021-08-19 19:04:01+00:00,261.0,8.85,260.0,10.17,14.0,47.59359,-54.27349
2021-08-19 19:14:01+00:00,254.0,9.74,259.0,11.11,14.0,47.59359,-54.27349
2021-08-19 19:24:01+00:00,257.0,11.46,253.0,12.81,14.0,47.59359,-54.27349
2021-08-19 19:34:01+00:00,256.0,11.06,258.0,12.51,14.0,47.59359,-54.27349
2021-08-19 19:44:01+00:00,268.0,7.41,269.0,10.03,14.0,47.59359,-54.27349
2021-08-19 19:54:01+00:00,277.0,7.17,278.0,8.99,14.0,47.59359,-54.27349
2021-08-19 20:04:01+00:00,268.0,7.14,277.0,8.0,14.0,47.59359,-54.27349
2021-08-19 20:14:01+00:00,258.0,6.47,262.0,7.9,13.68,47.59359,-54.27349
2021-08-19 20:24:01+00:00,259.0,6.24,257.0,7.3,13.68,47.59359,-54.27349
2021-08-19 20:34:01+00:00,256.0,8.82,257.0,10.69,13.68,47.59359,-54.27349
2021-08-19 20:44:01+00:00,250.0,11.29,251.0,12.61,13.68,47.59359,-54.27349
2021-08-19 20:54:01+00:00,252.0,11.05,252.0,12.25,13.68,47.59359,-54.27349
2021-08-19 21:04:01+00:00,260.0,10.17,261.0,11.21,13.68,47.59359,-54.27349
2021-08-19 21:14:01+00:00,244.0,7.55,242.0,9.34,13.53,47.59359,-54.27349
2021-08-19 21:24:01+00:00,214.0,7.83,214.0,8.85,13.53,47.59359,-54.27349
2021-08-19 21:34:01+00:00,256.0,7.07,262.0,9.18,13.53,47.59359,-54.27349
2021-08-19 21:44:01+00:00,225.0,4.06,222.0,5.16,13.53,47.59359,-54.27349
2021-08-19 21:54:01+00:00,239.0,7.33,239.0,8.28,13.53,47.59359,-54.27349
2021-08-19 22:04:01+00:00,228.0,5.52,237.0,6.65,13.53,47.59359,-54.27349
2021-08-19 22:14:01+00:00,214.0,6.8,216.0,7.33,13.29,47.59359,-54.27349
2021-08-19 22:24:01+00:00,219.0,6.18,216.0,7.0,13.29,47.59359,-54.27349
2021-08-19 22:34:01+00:00,214.0,6.75,213.0,7.4,13.29,47.59359,-54.27349
2021-08-19 22:44:01+00:00,213.0,7.55,212.0,8.57,13.29,47.59359,-54.27349
2021-08-19 22:54:01+00:00,211.0,7.55,212.0,8.12,13.29,47.59359,-54.27349
2021-08-19 23:04:01+00:00,211.0,8.01,211.0,9.03,13.29,47.59359,-54.27349
2021-08-19 23:14:00+00:00,215.0,7.68,214.0,8.44,12.73,47.59359,-54.27349
2021-08-19 23:24:00+00:00,220.0,7.36,221.0,7.88,12.73,47.59359,-54.27349
2021-08-19 23:34:00+00:00,217.0,6.94,216.0,7.84,12.73,47.59359,-54.27349
2021-08-19 23:44:00+00:00,216.0,6.2,221.0,6.97,12.73,47.59359,-54.27349
2021-08-19 23:54:00+00:00,219.0,6.9,215.0,7.57,12.73,47.59359,-54.27349
